Location: algorfa
(38.0849°N, 0.7965°W)
Time: 11:10:22
(UTC+02:00)

N. Korean satellite - Visible Passes

Search period start: 05 October 2022 00:00
Search period end: 15 October 2022 00:00
Orbit: 426 x 467 km, 97.3° (Epoch: 04 October)

Date Brightness Start Highest point End Pass type
(mag) Time Alt. Az. Time Alt. Az. Time Alt. Az.
05 Oct 6.5 07:35:55 10° N 07:39:04 48° WNW 07:42:13 10° SSW visible
06 Oct 7.6 06:59:56 10° NNE 07:03:04 43° E 07:06:12 10° S visible
07 Oct 9.7 06:25:08 10° ENE 06:26:51 14° E 06:28:34 10° SE visible
08 Oct 6.3 07:20:14 10° N 07:23:31 87° WNW 07:26:47 10° SSW visible
09 Oct 8.8 06:44:29 10° NE 06:47:16 25° E 06:50:02 10° SSE visible
10 Oct 6.7 07:40:33 10° N 07:43:39 41° WNW 07:46:46 10° SW visible
11 Oct 7.3 07:04:10 10° NNE 07:07:23 50° E 07:10:35 10° S visible
12 Oct 9.6 06:28:50 10° NE 06:30:52 15° E 06:32:53 10° SE visible
13 Oct 6.2 07:23:54 10° N 07:27:11 77° WNW 07:30:28 10° SSW visible
14 Oct 8.6 06:47:44 10° NE 06:50:38 28° E 06:53:32 10° SSE visible
